Showing default

MIMAN, 52900

Orbit data source: Space-Track

MIMAN, 52900 is a payload satellite owned by Yonsei U (KR) in SSO that was launched on Tue, 21 Jun 2022 UTC via an NURI launch vehicle from the Naro Space Center, South Korea (NSC). Payload-class satellites include a variety of spacecraft equipped with specific instruments for various scientific and technological missions. These include communications satellites like Starlink; space stations such as the ISS; scientific satellites like the Hubble; Earth observation satellites from companies like Planet Labs, Umbra, and HawkEye 360; GPS; miniature CubeSats for education and research; and military/defense satellites.

Loading next visibility...
Identifier
52900, 2022-065G
Orbit
SSO
Last TLE update
13 hours ago
Origin
Manufacturer
Yonsei U
Mission
Operational Amateur Technology
Bus & Motor
CUBESAT 3U, Unknown motor
Mass
4 kg wet, 4 kg dry
Launch date (UTC)
2022-06-21 (3 years ago)
Launch vehicle
NURI
Launch site
Naro Space Center, South Korea (NSC)
Object type
Payload
Rocket body
Debris
Shape & HBR
Box, 0.34 m
Radar Cross Section
0.039 m², Small (<0.1 m²)

Expand to show TLE details & history

TLE from 13 hours ago
0 MIMAN
1 52900U 22065G   25187.93353599  .00000432  00000-0  97124-4 0  9996
2 52900  98.1765 328.3393 0008279  34.5500 325.6237 14.61196429160017
Epoch: 2025-07-06T22:24Z
TLE epoch observation values (Epoch: 2025-07-06T22:24:17.509Z)
Latitude
-0.00007°
Longitude
67.11624°
Altitude
687.472 km
Speed
7.515 km/s
True Right ascension
21h 53m 21s
True Declination
0° 00' 00"
Sunlit
Object was in full shadow at epoch
Visualization orbit readout
Latitude
74.82887°
Longitude
35.86561°
Altitude
697.905 km
Speed
7.516 km/s
Apparent Right ascension
13h 25m 11s
Apparent Declination
32° 10' 35"
Sunlit
Object is in daylight
Visualization observer readout
Local Sidereal Time
23:56:33
Azimuth
340.698° N
Elevation
-15.043°
Doppler factor
1
Orbital elements
Apogee altitude
692.241 km
Perigee altitude
680.543 km
Semi-major axis
7,064.529 km
Eccentricity
0.00083
Inclination
98.1765°
RAAN
328.3393°
Arg. of periapsis
34.55°
True anomaly
Unknown
Mean anomaly
325.6237°
Eccentric anomaly
Unknown
Mean motion
3.65526 °/min
Orbital period
98.49 mins
BSTAR
0.000097124
Loading maneuver chart data...
Loading SW <> Apogee altitude chart data...
Loading historical data...
Loading historical data...
Loading historical data...
Loading historical data...
Loading historical data...
Loading historical data...
Loading historical data...

MIMAN Visibility forecast

Observer location: undefined°, undefined°

Span
Click to sort rows by Start time (UTC) header in descending order
Start Az.
Max El. time (UTC)
Max El. Az.
Max El.
End time (UTC)
End Az.
8 mins2025-07-07 21:59:12.499Z22.793° NE2025-07-07 22:03:12.499Z103.713° ESE40.532°2025-07-07 22:07:12.499Z179.051° S
7 mins2025-07-08 09:03:12.499Z145.706° SSE2025-07-08 09:06:12.499Z80.939° E39.674°2025-07-08 09:10:12.499Z357.906° N
|